Preview of NWS' New Version of Forecast
This preview is not operational and should not be used for support decisions.

Regional Weather Roundup (RWR)

Issued by Philadelphia/Mt Holly (PHI)

                            
000
ASUS41 KPHI 180611
RWRPHI

REGIONAL WEATHER ROUNDUP
NATIONAL WEATHER SERVICE MOUNT HOLLY NJ
100 AM EST FRI JAN 18 2019

NOTE:  "FAIR" INDICATES FEW OR NO CLOUDS BELOW 12,000 FEET WITH NO
SIGNIFICANT WEATHER AND/OR OBSTRUCTIONS TO VISIBILITY.

 * = STATION DOES NOT REPORT PRECIPITATION (E.G. RAIN, SNOW, ETC.) 
        OR FOG.

NJZ015>026-180700-
SOUTHERN NEW JERSEY
  
CITY           SKY/WX    TMP DP  RH WIND       PRES   REMARKS
POMONA         CLOUDY    31  26  82 CALM      30.17F                  
6HR MIN TEMP:  28; 6HR MAX TEMP:  31;                                

WILDWOOD*      MIX PCPN  35  29  78 CALM      30.17F                  
MILLVILLE      FLURRIES  30  25  81 N6        30.17F WCI  24          
WRIGHTSTOWN    FLURRIES  29  27  91 NW5       30.16F WCI  24          
MOUNT HOLLY    LGT SNOW  28  25  88 CALM      30.19F FOG              
TRENTON        LGT SNOW  28  24  85 N3        30.18F FOG              
6HR MIN TEMP:  28; 6HR MAX TEMP:  30; 6HR PCP: TRACE;                


$$
NJZ001>014-180700-
NORTHERN NEW JERSEY
  
CITY           SKY/WX    TMP DP  RH WIND       PRES   REMARKS
SUSSEX         LGT SNOW  25  23  92 CALM      30.17F FOG              
ANDOVER*         N/A     25  22  88 CALM      30.17F                  
MORRISTOWN     LGT SNOW  27  25  93 CALM      30.20F                  
NEWARK         FLURRIES  31  22  69 NE6       30.21F WCI  25          
TETERBORO      LGT SNOW  30  20  66 E10       30.21F WCI  21          
CALDWELL       LGT SNOW  26  24  92 NE5       30.22F FOG     WCI  20  
SOMERVILLE     LGT SNOW  27  25  92 CALM      30.18F FOG              
ALLAIRE*       LGT RAIN  32  28  85 CALM      30.19F                  
TOMS RIVER*    MIX PCPN  30  28  92 CALM      30.19F FOG              

$$
PAZ043-044-047-054-055-060>062-066>071-180700-
EASTERN PENNSYLVANIA
  
CITY           SKY/WX    TMP DP  RH WIND       PRES   REMARKS
PHILADELPHIA   LGT SNOW  29  27  92 NE5       30.19F FOG     WCI  24  
6HR MIN TEMP:  29; 6HR MAX TEMP:  32; 6HR PCP:  0.02;                

NORTH PHILA    LGT SNOW  30  25  81 NE3       30.20F                  
BLUE BELL*       N/A     28  27  93 CALM      30.19F                  
DOYLESTOWN     LGT SNOW  27  23  85 CALM      30.17F FOG              
QUAKERTOWN*    CLOUDY    27  23  86 CALM      30.16                   
PERKASIE*      LGT SNOW  25  25 100 NE5       30.17F WCI  19          
POTTSTOWN      LGT SNOW  26  24  92 E3        30.18F FOG              
LANCASTER      LGT SNOW  28  25  88 E6        30.15F FOG     WCI  22  
COATESVILLE    LGT SNOW  27  27 100 E5        30.15F WCI  21          
READING        CLOUDY    28  24  85 CALM      30.15F                  
6HR MIN TEMP:  28; 6HR MAX TEMP:  31; 6HR PCP: TRACE;                

ALLENTOWN      LGT SNOW  28  22  78 E5        30.17F WCI  23          
6HR MIN TEMP:  28; 6HR MAX TEMP:  31; 6HR PCP: TRACE;                

MOUNT POCONO   CLOUDY    19  18  95 VRB5      30.06F WCI  12          
6HR MIN TEMP:  19; 6HR MAX TEMP:  21; 6HR PCP: TRACE;                

HAZLETON       CLOUDY   N/A N/A N/A SE5       30.09F                  
LEHIGHTON      CLOUDY    28  21  74 CALM      30.17F                  
WILKES BARRE   CLOUDY    25  18  74 W3        30.11F                  

$$
DEZALL-MDZ008-012-015-019-020-180700-
DELAWARE AND EASTERN MARYLAND
  
CITY           SKY/WX    TMP DP  RH WIND       PRES   REMARKS
WILMINGTON     MIX PCPN  30  27  88 E6        30.18F WCI  24          
6HR MIN TEMP:  30; 6HR MAX TEMP:  32; 6HR PCP:  0.02;                

DOVER          LGT SNOW  32  30  93 N3        30.16F FOG              
GEORGETOWN     LGT RAIN  37  31  78 N5        30.15F WCI  33          
6HR MIN TEMP:  34; 6HR MAX TEMP:  38; 6HR PCP: TRACE;                

EASTON         LGT SNOW  33  32  96 NE3       30.18F                  
PATUXENT       CLOUDY    37  36  96 E6        30.13  WCI  32          
OCEAN CITY     CLOUDY    41  35  79 CALM      30.14F                  
WALLOPS ISLAND CLOUDY    40  34  79 E3        30.14F                  
CAMBRIDGE      CLOUDY    32  32 100 CALM      30.14F                  
SALISBURY      CLOUDY    35  31  85 CALM      30.13F                  

$$
PAZ001-021-NYZ056-072-MDZ011-DCZ001-180700-
OTHER NEARBY LOCATIONS
  
CITY           SKY/WX    TMP DP  RH WIND       PRES   REMARKS
HARRISBURG     LGT SNOW  28  24  85 E7        30.14F FOG     WCI  21  
STATE COLLEGE  LGT SNOW  27  24  89 SW3       30.05F                  
WILLIAMSPORT   CLOUDY    27  21  78 NE12      30.11F WCI  17          
BINGHAMTON     CLOUDY    20  16  84 S7        30.03F WCI  11          
NEW YORK CITY  LGT SNOW  30  21  69 MISG      30.22                   
BALTIMORE      LGT SNOW  31  30  96 E8        30.15F FOG     WCI  23  
WASHINGTON DC  LGT SNOW  34  32  92 CALM      30.15F FOG              

$$